Vertical_Velocity
12 10 -8 4 8 5 -3 -8 -0 3 1 -5 -3 7 -8 -10 -9 -2 -5 -7 4 9 5 -0 -4 5 -0 3 4 1 -3 -4 2 -2 -3 1 -0 -2 -2 -1 -3 1 1 2 3 -0 -2 -2 -1
-7 2 -2 -2 10 6 -7 -8 -2 -6 -2 -4 1 -3 1 -5 -4 1 8 -6 9 6 -3 5 -3 1 1 4 -1 0 -0 -3 1 -3 -0 0 -2 1 -3 0 -1 0 -1 -1 -3 2 -5 -3 1
1 1 -1 -1 0 -4 -5 -4 -7 -4 0 -5 5 -2 2 -1 2 3 7 -15 -2 9 -1 5 -1 2 4 4 -0 -3 1 0 1 -2 0 -0 -1 -1 -5 1 -1 2 -3 1 1 -3 -2 6 -4
-5 14 -3 4 -6 -15 -5 -4 -3 3 2 3 3 -1 -1 -2 6 -2 9 -3 -7 1 6 0 -1 3 4 -1 -1 2 1 0 -1 -0 1 1 1 1 2 -2 -3 2 -2 -2 -1 2 -2 3 -4
11 2 3 3 -8 -8 -0 -8 -2 1 -2 -1 2 -0 2 0 8 7 -10 -0 -6 7 3 2 3 3 0 -1 0 -0 -1 -2 1 1 -2 3 -2 -2 1 -1 2 -1 -1 -3 -4 5 3 6 -8
7 2 4 -0 -5 -6 -2 -1 -0 0 0 -0 3 4 -1 -7 -2 5 -8 0 9 7 6 2 5 -1 2 -0 1 -0 -1 2 -6 0 -0 2 1 -4 0 -1 0 2 2 -1 -2 0 5 5 -4
2 4 -6 -2 -7 2 -10 2 1 -3 -0 1 -2 1 4 3 -3 6 -7 2 8 5 5 4 1 1 2 -3 2 1 2 1 -5 -1 -0 -0 -2 3 -1 3 -2 -0 -1 -2 -4 2 4 0 -5
2 5 6 -5 -5 -20 -6 4 -2 -1 -5 0 -7 -1 -2 -4 -2 2 -2 0 2 4 2 0 4 2 -1 -2 3 -0 0 2 -6 -2 3 4 2 -2 5 -2 -1 -4 -4 -3 -0 -1 1 -4 -3
2 16 -0 -15 6 -23 -2 4 -4 -4 2 2 -8 4 -10 1 4 -2 3 3 2 -0 2 2 1 0 -4 3 1 1 7 -4 -1 -2 3 -0 1 4 3 -5 1 -0 -6 -1 -0 4 9 -1 -3
9 8 -16 -12 -6 -6 -4 4 -1 4 3 4 4 4 -4 -0 5 2 -3 -2 -1 -1 -0 1 2 0 -2 2 -1 0 -1 2 -4 1 0 -1 1 -1 -1 -2 -0 -0 -3 0 -1 3 2 -5 -1
-5 -7 -7 -12 -6 4 -2 5 -6 -0 5 -6 -12 -3 5 -11 9 9 7 4 6 7 5 1 -3 4 1 -3 -6 2 0 -4 4 -1 -1 -0 -2 3 -3 0 0 3 0 -4 -1 3 -1 -1 -1
22 -0 -2 -14 -3 8 -1 -0 1 2 -10 -9 -4 4 -12 2 8 -4 1 2 -1 6 5 -0 1 1 -0 -0 -3 -0 -0 1 -3 -1 -2 5 -3 -3 -1 0 -3 -1 -3 -3 2 4 -4 -3 -1
14 -6 2 -4 3 -2 8 -4 -14 -2 -1 8 1 5 -12 -8 6 -15 6 4 3 -1 0 4 3 -0 -1 3 -1 -3 4 -2 0 -4 2 -1 -0 2 -2 -1 0 0 -2 -5 3 5 1 -4 -0
-11 -1 -7 -1 -6 -0 10 -7 27 -13 -1 10 -3 -2 -15 -10 -21 2 6 0 -5 5 -5 1 1 -0 -4 4 -2 -4 2 -1 -2 2 -1 -2 2 0 -6 -0 -1 1 -1 -3 1 1 -1 -2 -2
-4 16 8 -2 -6 -9 7 11 -3 -13 2 7 3 10 -25 -2 -12 -1 4 -6 -4 10 5 -3 1 0 -2 3 -1 -1 -4 -3 4 2 -2 -0 1 -2 -4 1 -4 -0 -6 2 2 -6 -1 -2 -2
20 22 13 -14 4 -19 23 -25 -11 -3 6 -0 2 -3 8 -20 5 13 -6 6 7 -1 -2 4 4 2 4 1 -2 -5 -0 1 3 -3 -1 0 2 -2 -0 2 0 -1 3 1 0 -5 -2 -1 -2
9 -6 7 7 -3 -0 19 -12 -14 2 4 -0 2 -5 -1 -1 -5 19 1 -5 -2 5 1 -1 2 3 6 3 1 -0 -1 1 -5 -2 -1 -1 -3 -1 -2 -1 -2 -0 5 -1 -1 -4 -1 -2 -1
-12 9 4 -7 -16 11 3 -7 -4 -2 5 -6 -2 4 -1 0 -22 -20 1 5 8 2 2 7 1 2 1 3 5 3 3 3 -3 -0 -0 -1 -2 3 -1 -3 -2 -3 2 -2 -5 -1 -2 -2 -0
-2 7 -1 -7 -8 18 -6 -2 -7 -6 6 4 1 -1 -3 2 -13 -5 4 8 2 3 -3 -7 -9 -1 -1 -3 -4 -6 -9 -4 5 1 -1 3 -2 2 -3 -1 -1 -1 -2 -3 -3 -2 -2 -2 -0
6 2 -9 -3 -1 18 0 -8 -6 0 -7 -5 -3 -2 -6 2 23 -13 -2 2 1 -6 -1 2 -3 1 -0 -1 1 3 5 8 3 -2 -4 -4 -1 -2 2 -4 3 -3 -1 -1 -5 -1 -2 -3 -1
-1 -1 -2 -10 -1 4 10 3 7 -5 4 5 0 -5 3 -1 -7 -0 3 -3 1 0 -1 -5 -5 -1 5 -0 4 3 9 9 2 -0 -1 -3 1 2 -0 1 -1 -1 -2 -1 -3 -1 -2 -5 -0
8 -6 1 3 8 -6 1 -7 2 -4 -1 3 -1 -1 -4 1 1 5 0 1 -4 -8 0 -1 6 6 2 4 -1 -5 -7 -12 2 1 -4 3 -5 -2 -0 1 1 -0 1 -3 -3 -2 -1 -4 -3
-23 2 -4 1 3 8 3 14 -25 5 4 -3 -3 -2 -3 -7 -0 -6 -4 -5 4 2 -12 1 3 1 4 1 -0 2 -2 5 0 5 0 -0 -2 1 -1 -1 2 -1 2 -5 -4 -2 -1 -3 -4
-2 15 8 5 5 12 -13 5 -10 -4 -18 -1 -1 -2 -6 0 -6 2 5 7 -3 4 3 3 0 2 1 -2 -1 -4 1 -1 -10 -3 -1 -3 -0 1 -2 -2 -0 1 2 -5 -3 -3 -1 -2 -3
12 12 6 12 9 -11 -3 16 -23 -5 -5 -7 -4 -3 -3 -4 2 -3 2 -3 1 -4 -1 3 -1 -0 1 -1 -3 2 3 3 -4 1 -3 -6 -5 -7 -5 1 -5 4 -2 -3 -4 -2 -1 -1 -4
-8 -4 -6 -4 -5 -13 2 -4 -39 -9 -3 -2 -1 1 5 3 -3 -0 -1 5 -0 -1 -1 -1 -3 -1 -4 -1 0 -0 4 -3 -3 0 -3 -3 -1 1 -1 -0 -3 4 -2 -0 -3 -4 1 -3 -4
-16 14 -18 3 -1 8 -7 -8 -5 2 2 -0 -1 2 -3 -2 6 3 3 -7 -7 -2 -2 -1 -1 1 2 6 6 -1 3 2 -4 -1 4 1 4 -1 0 -0 -2 2 -3 -2 -3 -5 -1 -2 -3
9 -24 30 6 6 3 -2 -2 -7 5 -0 -1 0 -1 5 5 2 2 7 3 3 8 6 5 8 5 6 7 8 7 4 6 6 5 -0 -3 3 -1 1 0 -0 1 -1 -3 -4 -2 -2 -2 -2
8 8 10 7 4 -6 -1 -6 8 5 4 3 3 2 3 1 -0 2 11 6 6 4 1 3 1 -1 -1 1 3 4 4 4 3 1 3 1 5 -2 -1 2 1 0 -1 -3 -3 -1 -2 -0 -3
1 -1 -4 3 -3 -4 -4 3 2 3 3 0 2 2 2 4 2 2 -4 3 8 10 8 4 5 5 9 7 4 4 3 4 5 2 3 2 -2 -2 -0 2 1 0 -2 -2 -1 -3 -3 -3 -2
Height
1480 1482 1487 1493 1499 1498 1491 1477 1459 1460 1466 1460 1460 1459 1460 1466 1470 1478 1473 1476 1482 1486 1487 1490 1496 1500 1503 1507 1511 1512 1515 1519 1522 1522 1524 1525 1526 1528 1529 1530 1532 1533 1534 1534 1533 1533 1533 1536 1535
1475 1479 1485 1489 1490 1487 1477 1466 1458 1456 1461 1463 1461 1463 1465 1465 1468 1470 1468 1476 1484 1487 1488 1489 1496 1500 1503 1507 1511 1512 1516 1518 1521 1522 1524 1525 1526 1527 1529 1531 1532 1533 1534 1534 1534 1534 1535 1535 1536
1472 1477 1483 1486 1482 1472 1466 1452 1450 1452 1462 1465 1463 1464 1466 1466 1467 1466 1467 1478 1483 1486 1490 1490 1494 1500 1503 1506 1510 1512 1516 1518 1520 1522 1524 1524 1526 1527 1529 1531 1532 1532 1534 1535 1535 1536 1536 1536 1538
1471 1478 1481 1476 1467 1460 1457 1451 1446 1450 1458 1459 1461 1464 1465 1463 1465 1464 1466 1479 1483 1487 1489 1491 1494 1500 1502 1506 1509 1512 1516 1518 1520 1521 1524 1525 1526 1528 1529 1530 1532 1533 1535 1535 1536 1535 1537 1537 1538
1469 1470 1469 1466 1459 1452 1450 1447 1443 1444 1451 1454 1458 1456 1462 1460 1462 1465 1469 1478 1481 1486 1487 1491 1495 1499 1502 1506 1509 1512 1516 1517 1519 1521 1524 1525 1526 1528 1530 1530 1532 1533 1535 1535 1538 1537 1537 1538 1538
1466 1462 1461 1459 1447 1440 1438 1435 1443 1447 1451 1456 1458 1455 1462 1459 1462 1465 1472 1477 1482 1484 1486 1490 1494 1499 1502 1506 1508 1512 1513 1517 1519 1522 1525 1526 1526 1528 1530 1531 1533 1535 1535 1536 1538 1538 1538 1539 1537
1454 1449 1452 1447 1435 1431 1427 1431 1439 1444 1452 1454 1458 1459 1458 1459 1459 1466 1470 1476 1479 1482 1484 1488 1493 1498 1502 1506 1508 1511 1512 1516 1519 1523 1525 1526 1527 1529 1531 1531 1533 1536 1536 1537 1538 1539 1539 1540 1539
1446 1445 1439 1435 1432 1426 1423 1428 1433 1438 1447 1450 1452 1456 1458 1456 1457 1466 1470 1474 1477 1480 1484 1487 1492 1496 1501 1506 1508 1510 1513 1515 1518 1524 1524 1527 1527 1529 1532 1531 1533 1537 1537 1538 1538 1539 1538 1540 1539
1441 1438 1432 1428 1425 1422 1421 1427 1430 1433 1440 1445 1446 1452 1455 1453 1458 1463 1467 1471 1475 1479 1482 1486 1490 1494 1500 1504 1507 1510 1512 1514 1518 1523 1525 1527 1529 1530 1530 1532 1534 1535 1538 1539 1540 1540 1539 1538 1539
1425 1421 1416 1425 1417 1415 1417 1420 1423 1432 1436 1441 1443 1447 1449 1455 1456 1458 1463 1465 1471 1475 1479 1483 1488 1493 1498 1501 1505 1509 1510 1514 1519 1521 1524 1527 1528 1529 1530 1533 1535 1535 1537 1540 1540 1540 1541 1539 1540
1413 1403 1417 1415 1413 1413 1414 1414 1420 1426 1430 1435 1439 1445 1447 1449 1453 1456 1458 1463 1465 1471 1476 1480 1485 1491 1495 1497 1504 1508 1509 1514 1516 1519 1522 1525 1525 1529 1530 1533 1536 1536 1538 1540 1540 1540 1541 1541 1541
1400 1403 1407 1407 1411 1410 1410 1413 1412 1416 1422 1430 1435 1441 1444 1449 1450 1453 1456 1460 1464 1467 1472 1477 1481 1487 1493 1496 1503 1505 1509 1511 1513 1517 1521 1522 1525 1528 1530 1533 1535 1536 1539 1540 1541 1539 1540 1542 1543
1388 1390 1401 1404 1405 1405 1409 1407 1411 1412 1419 1423 1431 1437 1442 1445 1445 1452 1453 1460 1462 1465 1469 1474 1478 1483 1490 1493 1499 1505 1506 1506 1510 1515 1518 1521 1524 1528 1530 1533 1534 1535 1539 1541 1541 1539 1540 1541 1543
1379 1389 1390 1396 1396 1400 1401 1403 1407 1408 1415 1419 1422 1427 1438 1443 1444 1446 1450 1453 1457 1461 1465 1469 1475 1480 1487 1490 1495 1499 1500 1505 1508 1512 1516 1520 1522 1527 1530 1532 1534 1536 1537 1538 1541 1540 1541 1540 1543
1378 1380 1386 1386 1385 1390 1399 1400 1394 1404 1411 1413 1415 1422 1430 1438 1441 1441 1441 1445 1451 1455 1460 1464 1471 1476 1482 1486 1490 1494 1498 1502 1505 1509 1514 1518 1521 1524 1529 1531 1533 1535 1538 1539 1539 1540 1542 1540 1542
1373 1375 1379 1368 1383 1382 1393 1385 1393 1400 1404 1406 1410 1417 1419 1428 1433 1434 1438 1441 1447 1452 1454 1460 1467 1471 1476 1481 1485 1490 1495 1499 1503 1506 1511 1515 1518 1522 1527 1529 1533 1535 1536 1536 1539 1539 1541 1540 1540
1359 1359 1352 1371 1369 1378 1377 1379 1385 1389 1396 1401 1405 1410 1414 1419 1422 1426 1431 1435 1440 1444 1451 1456 1462 1467 1472 1478 1481 1486 1490 1494 1498 1503 1508 1512 1515 1521 1525 1528 1532 1532 1535 1535 1538 1538 1540 1539 1540
1350 1341 1344 1356 1360 1366 1370 1368 1380 1380 1386 1392 1396 1399 1408 1411 1417 1422 1422 1429 1435 1439 1446 1451 1457 1463 1468 1474 1477 1481 1485 1489 1494 1499 1503 1508 1513 1517 1521 1526 1529 1531 1533 1533 1536 1537 1539 1538 1539
1338 1342 1339 1344 1350 1360 1359 1367 1372 1380 1379 1385 1391 1398 1403 1404 1406 1414 1417 1421 1426 1433 1439 1443 1448 1455 1462 1464 1467 1470 1476 1484 1487 1492 1499 1503 1509 1513 1517 1521 1526 1528 1531 1532 1533 1536 1537 1537 1538
1335 1334 1335 1342 1344 1351 1355 1354 1364 1370 1373 1377 1382 1386 1391 1394 1403 1410 1411 1413 1417 1421 1425 1432 1439 1449 1452 1456 1460 1466 1474 1478 1482 1488 1494 1498 1505 1509 1514 1517 1522 1524 1527 1528 1531 1533 1535 1536 1536
1333 1330 1335 1336 1341 1346 1353 1354 1358 1357 1363 1372 1378 1380 1381 1384 1390 1395 1400 1402 1409 1412 1415 1419 1426 1436 1442 1448 1456 1463 1470 1473 1477 1482 1486 1493 1499 1503 1509 1514 1517 1520 1523 1525 1529 1530 1532 1533 1534
1333 1334 1341 1337 1340 1351 1352 1358 1355 1353 1355 1362 1368 1372 1373 1377 1381 1388 1390 1395 1398 1403 1410 1415 1420 1425 1434 1440 1445 1451 1454 1460 1468 1473 1480 1486 1492 1499 1504 1510 1512 1516 1519 1521 1526 1527 1529 1530 1532
1331 1333 1341 1344 1338 1348 1348 1360 1339 1341 1350 1351 1352 1355 1363 1370 1373 1378 1379 1381 1387 1397 1401 1404 1411 1419 1426 1429 1435 1441 1449 1458 1463 1467 1474 1481 1487 1493 1499 1504 1508 1511 1513 1517 1522 1525 1526 1527 1529
1340 1334 1337 1344 1343 1352 1343 1342 1337 1327 1323 1332 1342 1349 1355 1360 1364 1369 1374 1378 1382 1388 1395 1399 1404 1409 1415 1420 1427 1433 1441 1446 1453 1459 1464 1472 1480 1485 1491 1498 1503 1507 1508 1513 1518 1521 1523 1524 1525
1337 1330 1342 1356 1358 1348 1336 1335 1324 1316 1319 1323 1331 1338 1344 1349 1356 1362 1368 1368 1372 1377 1384 1390 1396 1400 1404 1411 1419 1425 1430 1436 1441 1449 1457 1462 1469 1476 1484 1489 1496 1500 1502 1509 1513 1517 1519 1520 1522
1314 1327 1314 1332 1338 1322 1333 1329 1317 1320 1319 1323 1327 1332 1337 1342 1349 1354 1359 1361 1362 1368 1375 1380 1385 1392 1397 1403 1409 1417 1423 1428 1433 1442 1450 1455 1463 1469 1477 1483 1491 1495 1498 1504 1509 1513 1515 1516 1517
1309 1314 1313 1304 1307 1313 1318 1316 1305 1316 1322 1323 1324 1329 1335 1339 1343 1347 1352 1355 1358 1361 1363 1367 1374 1382 1387 1392 1399 1407 1413 1418 1424 1434 1441 1449 1457 1464 1470 1478 1486 1489 1494 1499 1504 1508 1510 1511 1513
1317 1302 1314 1306 1316 1323 1314 1312 1318 1311 1319 1323 1328 1331 1337 1339 1341 1344 1345 1349 1352 1354 1358 1365 1369 1373 1380 1387 1394 1399 1404 1414 1420 1426 1431 1439 1449 1456 1463 1471 1479 1484 1488 1493 1498 1503 1505 1507 1508
1314 1307 1304 1301 1305 1311 1311 1309 1327 1328 1335 1339 1345 1346 1346 1346 1345 1344 1345 1344 1346 1350 1352 1356 1363 1369 1375 1380 1387 1393 1399 1407 1414 1418 1426 1432 1440 1448 1456 1464 1471 1476 1480 1487 1493 1497 1500 1503 1504
1316 1304 1304 1298 1305 1300 1307 1324 1342 1344 1348 1352 1355 1354 1352 1350 1347 1343 1341 1342 1344 1348 1349 1352 1357 1363 1368 1372 1380 1387 1393 1402 1407 1412 1419 1425 1430 1439 1448 1457 1464 1469 1475 1481 1487 1492 1495 1498 1499